Location: Moscow
(30.9132°N, 94.8252°W)
Time: 00:34:24
(UTC+00:00)

DMSP B5D1-3 - Pass Details

Date: 15 November 2025
Orbit: 759 x 772 km, 98.5° (Epoch: 11 December)

Event Time Altitude Azimuth Distance (km) Brightness Sun altitude
Exits shadow 01:08:28 22° 12° (NNE) 1,641 6.0 -22.9°
Maximum altitude 01:11:51 89° 286° (WNW) 772 4.4 -23.6°
Drops below altitude 10° 01:16:55 10° 194° (SSW) 2,294 7.2 -24.7°
Sets 01:19:12 0° 194° (SSW) 3,215 8.0 -25.2°
